Torna al catalogo

TOMORROW-S3

AttivoMeteoVLEO
NORAD 62392·PAYLOAD·🇺🇸 United States

Lanciato Dec 21, 2024 da Vandenberg Space Force Base

Loading…

Prossimi Passaggi (prossime 24 ore)

TLE

AggiornatoSource: Space-Track

Epoca: Sep 13, 2026, 19:00 UTC

1 62392U 24247R   26256.79204450  .00004932  00000-0  17628-3 0  9998
2 62392  45.0004 167.9189 0001884 136.0838 224.0196 15.30097921 96521

Traccia TOMORROW-S3 in tempo reale con AllMySat

Download on the App Store